Regional Weather Roundup
Issued by NWS

Home | Current Version | Previous Version | Text Only | Print | Product List | Glossary Off
Versions: 1 2 3 4 5 6 7 8 9 10 11 12 13 14 15 16 17 18 19 20 21 22 23 24 25 26 27 28 29 30 31 32 33 34 35 36 37 38 39 40 41 42 43 44 45 46 47 48 49 50

000
ASUS43 KDTX 241401
RWRMI
MICHIGAN HOURLY REGIONAL WEATHER ROUNDUP
NATIONAL WEATHER SERVICE DETROIT/PONTIAC MI
1000 AM EDT MON APR 24 2017

NOTE: "FAIR" INDICATES FEW OR NO CLOUDS BELOW 12,000 FEET WITH NO
SIGNIFICANT WEATHER AND/OR OBSTRUCTION TO VISIBILITY.

MIZ047>049-052>055-059>063-066>070-074>076-081>083-241500-
SOUTHEAST LOWER MICHIGAN

CITY           SKY/WX    TMP DP  RH WIND       PRES   REMARKS
ADRIAN         SUNNY     54  40  59 E8        30.07S
ALMA           SUNNY     48  39  71 N7        30.11S
ANN ARBOR      SUNNY     55  40  56 NE7       30.08S
BAD AXE        SUNNY     50  40  69 SE7       30.12S
CARO           SUNNY     54  40  60 SE5       30.10S
DETROIT CITY   SUNNY     54  41  61 E7        30.09S
DETROIT        SUNNY     55  41  59 NE9       30.09S
FLINT          SUNNY     53  41  63 NE5       30.09F
GROSSE ILE     SUNNY     53  44  71 NE7       30.07S
HILLSDALE      SUNNY     55  34  44 E10       30.05S
HOWELL         SUNNY     57  36  46 CALM      30.08S

CITY           SKY/WX    TMP DP  RH WIND       PRES   REMARKS
JACKSON        SUNNY     58  38  47 E7        30.07S
LAMBERTVILLE   SUNNY     55  39  55 E8        30.07R
LANSING        SUNNY     53  39  59 E3        30.09S
LAPEER         FAIR      51  40  66 E3        30.10S
MASON          SUNNY     53  41  63 CALM      30.08S
MONROE         SUNNY     56  41  57 NE8       30.06F
MT. CLEMENS    SUNNY     51  42  71 NE6       30.09R
PONTIAC        SUNNY     55  38  52 E7        30.08S
PORT HOPE        N/A     42  39  89 E10       30.12S
PORT HURON     SUNNY     54  39  58 E8        30.11R
TRI CITIES     SUNNY     50  40  68 E6        30.12R
MIDLAND        FAIR      51  40  65 E7        30.11S
TROY           SUNNY     53  38  58 NE7       30.11S
SAGINAW HB     SUNNY     50  37  62 E3        30.11R
$$
MIZ043>046-050>051-056>058-064>065-071>073-077>080-241500-
SOUTHWEST LOWER MICHIGAN

CITY           SKY/WX    TMP DP  RH WIND       PRES   REMARKS
BATTLE CREEK   SUNNY     57  37  47 E5        30.07S
BENTON HARBOR  SUNNY     61  28  28 E8        30.05S
BIG RAPIDS     SUNNY     49  37  64 SE8       30.08F
COLDWATER      SUNNY     57  33  39 E6        30.05S
FREMONT        FAIR      51  37  59 E7        30.07S
HOLLAND        SUNNY     52  42  69 E6        30.07S
GRAND RAPIDS   MOSUNNY   51  41  68 E8        30.08S
IONIA          FAIR      49  40  71 NE5       30.09S
KALAMAZOO      SUNNY     58  35  42 VRB3      30.07S
LUDINGTON      SUNNY     51  40  65 SE9       30.04F
MARSHALL       SUNNY     56  35  44 E7        30.06S
MOUNT PLEASANT SUNNY     48  38  69 E3        30.10S
MUSKEGON       MOSUNNY   53  40  61 E12       30.06F
SOUTH HAVEN    SUNNY     58  38  46 SE6       30.05S
$$
MIZ016>042-241500-
NORTHERN LOWER MICHIGAN

CITY           SKY/WX    TMP DP  RH WIND       PRES   REMARKS
ALPENA         PTSUNNY   41  35  79 E13       30.17R
BEAVER ISLAND  SUNNY     41  34  75 E16       30.10S
BELLAIRE       SUNNY     50  33  51 SE7G17    30.08S
CADILLAC       SUNNY     49  35  57 SE12      30.07F
CHARLEVOIX     SUNNY     44  33  66 E10       30.11F
FRANKFORT      SUNNY     52  33  48 SE9       30.05S
GAYLORD        SUNNY     45  33  63 SE9       30.10S
GRAYLING       SUNNY     46  34  63 E8        30.10F
HARBOR SPRINGS MOSUNNY   40  33  77 E16G23    30.13R WCI  31
HOUGHTON LAKE  SUNNY     49  36  61 SE8       30.10S
MANISTEE       SUNNY     53  37  54 SE7       30.05F
OSCODA         SUNNY     44  35  70 E7        30.15R
PELLSTON       CLOUDY    41  32  70 SE9       30.14R
ROGERS CITY    PTSUNNY   41  32  70 E14       30.18R
TRAVERSE CITY  MOSUNNY   52  33  48 VRB5      30.06F
$$
MIZ007>008-015-241500-
EASTERN UPPER MICHIGAN

CITY           SKY/WX    TMP DP  RH WIND       PRES   REMARKS
KINROSS        CLOUDY    37  25  61 E22       30.16S WCI  26
MACKINAC ISLAN CLOUDY    36  29  76 E9G22     30.15S WCI  29
NEWBERRY       MOSUNNY   38  30  72 E12       30.12R WCI  31
S. S. MARIE    MOSUNNY   39  23  52 E8G21     30.17S WCI  33
MUNISING         N/A     38  28  67 SE12      30.07F WCI  30
$$
MIZ004>006-011>014-085-241500-
CENTRAL UPPER MICHIGAN

CITY           SKY/WX    TMP DP  RH WIND       PRES   REMARKS
MANISTIQUE     SUNNY     42  36  79 E14G20    30.09S
ESCANABA       SUNNY     41  32  70 E13       30.08S
MENOMINEE      SUNNY     41  33  73 E7        30.06F
SAWYER-GWINN   SUNNY     32  27  80 SE6       30.06F WCI  26
$$
MIZ001>003-009>011-084-241500-
WESTERN UPPER MICHIGAN

CITY           SKY/WX    TMP DP  RH WIND       PRES   REMARKS
IRON MOUNTAIN  MOSUNNY   34  25  69 E8        30.03F WCI  27
HOUGHTON       MOSUNNY   36  27  69 SE20G28   30.03F WCI  25
COPPER HARBOR    N/A     36  30  79 S10G20    30.08F WCI  28
$$

ABBREVIATIONS USED IN REMARKS
   TC - TEMPERATURE IN CELSIUS
  WCI - WIND CHILL INDEX
   HX - HEAT INDEX
  VSB - VISIBILITY





USA.gov is the U.S. government's official web portal to all federal, state and local government web resources and services.